NOAA 17 DEB

Satellite information

Favourite Embed

Satellite Type and Status

DEBRISIN ORBIT

Key statistics

Satellite NOAA 17 DEB at a glance.

Uptime

8574

Days in orbit

Revolutions

≈ 14.2

Per day

Orbit

SSO

Sun Synchronous Orbit

Inclination

98.9

Latest

Satellite identification and parameters

Extended collection of information and parameters for NOAA 17 DEB.

Object identification

Identified? True

Debris? True

Object name: NOAA 17 DEB

International designator: 2002-032AP

Object number (NORAD): 48706

Object ID (CCSDS): 48706

Country: UNITED STATES OF AMERICA (US)

Current information (Y/N): Y

RCS size: SMALL

Orbital parameters

Period: 101.137 minutes

Inclination: 98.9264 deg

SMA: 7190.632 km

Apoapsis: 886.63 km

Periapsis: 738.364 km

RAAN: 291.0969 deg

Eccentricy: 0.01030965

Argument of periapsis: 324.9741 deg

Mean anomaly: 34.4685 deg

Mean motion: 14.23810344 rev/day

Mean motion (dot): 0.00014765 rev/day2

B* drag term: 0.0061164317 1/REarth

Two-line elements (TLE)

Creation date: Dec. 11, 2025, 7:14 p.m.

Reference frame: TEME

Reference center: EARTH

Epoch: Dec. 11, 2025, 1:32 p.m. UTC

TLE line 0: 0 NOAA 17 DEB

TLE line 1: 1 48706U 02032AP 25345.56439378 .00014765 00000-0 61164-2 0 9999

TLE line 2: 2 48706 98.9264 291.0969 0103097 324.9741 34.4685 14.23810344240490

Live tracking on map

Real-time ground track for satellite NOAA 17 DEB.

In-orbit conjunctions

A list of the most updated potential collisions computed for object NOAA 17 DEB.

Target Orbit TCA Probability of collision Miss distance Type
COSMOS 2298 LEO 2025-12-13 17:16:07 0.0002757789 336.0 (m) PAYLOAD
COSMOS 1777 LEO 2024-12-22 09:57:20 0.0001110201 393.0 (m) PAYLOAD
SL-3 DEB LEO 2024-11-13 07:20:01 0.0002103353 203.0 (m) DEBRIS
SL-14 DEB LEO 2024-09-04 12:12:19 0.000120263 180.0 (m) DEBRIS

Associated space launch

NOAA M carried weather imagers and microwave and infrared sounders, as well as a SARSAT search-and-rescue package. It had an on-orbit mass of 1475 kg.

NOAA 17 DEB was lifted into orbit during the mission ‘Titan II SLV | NOAA 17’, on board a Titan II SLV space rocket.

The launch took place on June 24, 2002, 6:23 p.m. from Space Launch Complex 4W.

For more information about the launch, click the button.

Launch to space Titan II SLV | NOAA 17
Titan II SLV | NOAA 17

Agency: N/A

Status: Launch Successful

Launch date: June 24, 2002, 6:23 p.m. UTC

Rocket: Titan II SLV

Launch pad: Space Launch Complex 4W

Location: Vandenberg SFB, CA, USA

...

Latest news about this satellite

There are no fresh news available about this satellite. Check back as we update our databases every day.


Newsletter sign-up

Weekly statistics, charts and insights to help you stay on top of the space industry.